Weather History for KDNS - February, 2014

Change the Weather History Date:

Thursday, February 13, 2014

  Actual Average (KOMA) Record (KOMA)
Temperature  
Mean Temperature 32 °F 27 °F  
Max Temperature 46 °F 37 °F 68 °F (1967)
Min Temperature 19 °F 17 °F -22 °F (1905)
Degree Days  
Heating Degree Days 32 38  
Month to date heating degree days 509  
Since 1 July heating degree days 4274  
Cooling Degree Days 0 0  
Month to date cooling degree days 0  
Year to date cooling degree days 0  
Moisture  
Dew Point 20 °F    
Average Humidity 68    
Maximum Humidity 86    
Minimum Humidity 50    
Precipitation  
Precipitation 0.00 in 0.02 in 0.85 in (1919)
Month to date precipitation 0.35  
Year to date precipitation 1.07  
Snow  
Snow 0.00 in 0.20 in - ()
Month to date snowfall 3.0  
Since 1 July snowfall 18.1  
Snow Depth -    
Sea Level Pressure  
Sea Level Pressure 29.70 in    
Wind  
Wind Speed 13 mph (WNW)    
Max Wind Speed 23 mph    
Max Gust Speed 32 mph    
Visibility 10 miles    
Events      
T = Trace of Precipitation, MM = Missing Value Source: NWS Daily Summary

Daily Weather History Graph

Daily Weather History Graph

Search for Another Location

Airport or City:

Trip Planner

Search our weather history database for the weather conditions in past years. The results will help you decide how hot, cold, wet, or windy it might be!

Date:

Astronomy

Feb. 13, 2014 Rise Set
Actual Time 7:20 AM CST 5:52 PM CST
Civil Twilight 6:51 AM CST 6:20 PM CST
Nautical Twilight 6:18 AM CST 6:53 PM CST
Astronomical Twilight 5:46 AM CST 7:25 PM CST
Moon 5:01 PM CST (2/13) 6:13 AM CST (2/13)
Length of Visible Light 11h 29m
Length of Day
10h 31m
Waxing Gibbous, 99% of the Moon is Illuminated
Feb 13
Waxing Gibbous
Feb 14
Full
Feb 22
Last Quarter
Mar 1
New
Mar 8
First Quarter

Hourly Weather History & Observations

Time (CST) Temp. Windchill Dew Point Humidity Pressure Visibility Wind Dir Wind Speed Gust Speed Precip Events Conditions
12:15 AM 23.0 °F 11.7 °F 19.4 °F 86% 29.81 in 7.0 mi SSW 11.5 mph 18.4 mph N/A   Overcast
12:35 AM 23.0 °F 11.1 °F 19.4 °F 86% 29.79 in 7.0 mi South 12.7 mph - N/A   Overcast
12:55 AM 24.8 °F 12.9 °F 21.2 °F 86% 29.75 in 6.0 mi South 13.8 mph - N/A   Mostly Cloudy
1:15 AM 24.8 °F 14.6 °F 21.2 °F 86% 29.75 in 7.0 mi SSW 10.4 mph 16.1 mph N/A   Overcast
1:35 AM 24.8 °F 13.4 °F 21.2 °F 86% 29.74 in 7.0 mi SSW 12.7 mph - N/A   Overcast
1:55 AM 24.8 °F 11.9 °F 21.2 °F 86% 29.72 in 7.0 mi SSW 16.1 mph - N/A   Overcast
2:15 AM 24.8 °F 12.9 °F 21.2 °F 86% 29.71 in 8.0 mi South 13.8 mph 20.7 mph N/A   Overcast
2:35 AM 26.6 °F 14.3 °F 21.2 °F 80% 29.71 in 8.0 mi SSW 16.1 mph 24.2 mph N/A   Overcast
2:55 AM 26.6 °F 16.2 °F 21.2 °F 80% 29.70 in 8.0 mi SSW 11.5 mph 20.7 mph N/A   Overcast
3:15 AM 26.6 °F 13.8 °F 23.0 °F 86% 29.69 in 9.0 mi SSW 17.3 mph - N/A   Overcast
3:35 AM 26.6 °F 13.8 °F 23.0 °F 86% 29.69 in 9.0 mi SSW 17.3 mph 24.2 mph N/A   Overcast
3:55 AM 26.6 °F 13.8 °F 23.0 °F 86% 29.68 in 10.0 mi SSW 17.3 mph - N/A   Overcast
4:15 AM 26.6 °F 14.3 °F 23.0 °F 86% 29.67 in 10.0 mi SSW 16.1 mph 24.2 mph N/A   Overcast
4:35 AM 26.6 °F 14.3 °F 23.0 °F 86% 29.66 in 10.0 mi SSW 16.1 mph 24.2 mph N/A   Overcast
4:55 AM 28.4 °F 16.6 °F 23.0 °F 80% 29.66 in 10.0 mi SW 16.1 mph 25.3 mph N/A   Mostly Cloudy
5:15 AM 26.6 °F 15.2 °F 23.0 °F 86% 29.64 in 10.0 mi SSW 13.8 mph 20.7 mph N/A   Mostly Cloudy
5:35 AM 26.6 °F 14.7 °F 23.0 °F 86% 29.65 in 10.0 mi SW 15.0 mph - N/A   Partly Cloudy
5:55 AM 26.6 °F 15.2 °F 23.0 °F 86% 29.65 in - SW 13.8 mph - N/A   Clear
6:15 AM 26.6 °F 15.7 °F 23.0 °F 86% 29.65 in 10.0 mi SW 12.7 mph - N/A   Clear
6:35 AM 26.6 °F 15.2 °F 23.0 °F 86% 29.64 in 10.0 mi SW 13.8 mph - N/A   Clear
6:55 AM 26.6 °F 17.5 °F 23.0 °F 86% 29.65 in 10.0 mi SW 9.2 mph 15.0 mph N/A   Clear
7:15 AM 26.6 °F 18.2 °F 23.0 °F 86% 29.65 in 10.0 mi SSW 8.1 mph - N/A   Clear
7:35 AM 26.6 °F 19.1 °F 23.0 °F 86% 29.65 in 10.0 mi SSW 6.9 mph 12.7 mph N/A   Clear
7:55 AM 26.6 °F 19.1 °F 23.0 °F 86% 29.65 in 10.0 mi SW 6.9 mph - N/A   Clear
8:15 AM 28.4 °F 21.2 °F 23.0 °F 80% 29.66 in 10.0 mi SW 6.9 mph - N/A   Clear
8:35 AM 28.4 °F 20.4 °F 23.0 °F 80% 29.66 in 10.0 mi WSW 8.1 mph - N/A   Clear
8:55 AM 30.2 °F 22.6 °F 24.8 °F 80% 29.67 in 10.0 mi WSW 8.1 mph 15.0 mph N/A   Clear
9:15 AM 32.0 °F 24.8 °F 24.8 °F 75% 29.67 in 10.0 mi WSW 8.1 mph - N/A   Clear
9:35 AM 33.8 °F 27.0 °F 26.6 °F 75% 29.67 in 10.0 mi WSW 8.1 mph - N/A   Clear
9:55 AM 37.4 °F 29.8 °F 28.4 °F 70% 29.67 in 10.0 mi WSW 11.5 mph - N/A   Clear
10:15 AM 41.0 °F 32.5 °F 28.4 °F 61% 29.67 in 10.0 mi West 17.3 mph - N/A   Clear
10:35 AM 42.8 °F 34.3 °F 28.4 °F 57% 29.67 in 10.0 mi WNW 19.6 mph 26.5 mph N/A   Clear
10:55 AM 42.8 °F 33.5 °F 30.2 °F 61% 29.68 in 10.0 mi WNW 23.0 mph 31.1 mph N/A   Clear
11:15 AM 44.6 °F 36.4 °F 30.2 °F 57% 29.67 in 10.0 mi WNW 20.7 mph 27.6 mph N/A   Clear
11:35 AM 44.6 °F 36.1 °F 28.4 °F 53% 29.67 in 10.0 mi WNW 21.9 mph 29.9 mph N/A   Clear
11:55 AM 46.4 °F 38.5 °F 28.4 °F 50% 29.67 in 10.0 mi WNW 21.9 mph 29.9 mph N/A   Clear
12:15 PM 46.4 °F 38.5 °F 28.4 °F 50% 29.67 in 10.0 mi NW 21.9 mph 31.1 mph N/A   Clear
12:35 PM 46.4 °F 38.7 °F 28.4 °F 50% 29.66 in 10.0 mi WNW 20.7 mph 31.1 mph N/A   Clear
12:55 PM 46.4 °F 38.7 °F 28.4 °F 50% 29.65 in 10.0 mi NW 20.7 mph 32.2 mph N/A   Clear
1:35 PM 44.6 °F 37.8 °F 28.4 °F 53% 29.67 in 10.0 mi NW 15.0 mph 28.8 mph N/A   Clear
1:55 PM 42.8 °F 34.0 °F 28.4 °F 57% 29.67 in 10.0 mi NW 20.7 mph 26.5 mph N/A   Clear
2:15 PM 42.8 °F 33.8 °F 26.6 °F 53% 29.68 in 10.0 mi NNW 21.9 mph - N/A   Clear
2:35 PM 41.0 °F 31.9 °F 26.6 °F 57% 29.68 in 10.0 mi NW 19.6 mph 26.5 mph N/A   Clear
2:55 PM 41.0 °F 33.5 °F 24.8 °F 53% 29.70 in 10.0 mi NW 13.8 mph 23.0 mph N/A   Clear
3:15 PM 39.2 °F 29.8 °F 24.8 °F 56% 29.71 in 10.0 mi NW 18.4 mph 24.2 mph N/A   Clear
3:35 PM 39.2 °F 30.8 °F 23.0 °F 52% 29.71 in 10.0 mi NNW 15.0 mph 20.7 mph N/A   Clear
3:55 PM 37.4 °F 28.2 °F 21.2 °F 52% 29.72 in 10.0 mi NW 16.1 mph - N/A   Clear
4:15 PM 37.4 °F 28.5 °F 21.2 °F 52% 29.72 in 10.0 mi NNW 15.0 mph - N/A   Clear
4:35 PM 35.6 °F 26.6 °F 21.2 °F 56% 29.72 in 10.0 mi NNW 13.8 mph - N/A   Clear
4:55 PM 33.8 °F 25.8 °F 21.2 °F 60% 29.73 in 10.0 mi NNW 10.4 mph 18.4 mph N/A   Clear
5:15 PM 32.0 °F 21.6 °F 15.8 °F 51% 29.74 in 10.0 mi NNW 15.0 mph - N/A   Clear
5:35 PM 28.4 °F 17.5 °F 15.8 °F 59% 29.74 in - NNW 13.8 mph - N/A   Clear
5:55 PM 28.4 °F 19.7 °F 14.0 °F 55% 29.75 in 10.0 mi North 9.2 mph - N/A   Clear
6:15 PM 26.6 °F 16.8 °F 14.0 °F 59% 29.74 in 10.0 mi NNW 10.4 mph 17.3 mph N/A   Clear
6:35 PM 26.6 °F 20.0 °F 14.0 °F 59% 29.76 in 10.0 mi NNE 5.8 mph - N/A   Clear
6:55 PM 24.8 °F 16.1 °F 12.2 °F 59% 29.77 in 10.0 mi North 8.1 mph - N/A   Clear
7:15 PM 24.8 °F 16.9 °F 12.2 °F 59% 29.76 in 10.0 mi North 6.9 mph - N/A   Clear
7:35 PM 23.0 °F 11.7 °F 12.2 °F 63% 29.76 in 10.0 mi North 11.5 mph - N/A   Clear
7:55 PM 23.0 °F 15.8 °F 12.2 °F 63% 29.77 in 10.0 mi NNE 5.8 mph - N/A   Scattered Clouds
8:15 PM 23.0 °F 11.7 °F 12.2 °F 63% 29.75 in 10.0 mi NNE 11.5 mph - N/A   Overcast
8:35 PM 23.0 °F 12.4 °F 12.2 °F 63% 29.76 in 10.0 mi NNE 10.4 mph - N/A   Overcast
8:55 PM 23.0 °F 11.1 °F 10.4 °F 59% 29.75 in 10.0 mi NNE 12.7 mph - N/A   Overcast
9:15 PM 21.2 °F 10.1 °F 10.4 °F 63% 29.72 in 10.0 mi NE 10.4 mph - N/A   Overcast
9:35 PM 21.2 °F 9.5 °F 10.4 °F 63% 29.72 in 10.0 mi ENE 11.5 mph - N/A   Overcast
9:55 PM 21.2 °F 11.7 °F 10.4 °F 63% 29.72 in 10.0 mi ENE 8.1 mph 16.1 mph N/A   Overcast
10:15 PM 21.2 °F 10.9 °F 8.6 °F 58% 29.73 in 10.0 mi NE 9.2 mph - N/A   Mostly Cloudy
10:35 PM 21.2 °F 10.9 °F 8.6 °F 58% 29.71 in 10.0 mi NE 9.2 mph 16.1 mph N/A   Mostly Cloudy
10:55 PM 21.2 °F 8.9 °F 8.6 °F 58% 29.70 in 10.0 mi NE 12.7 mph - N/A   Overcast
11:15 PM 19.4 °F 9.5 °F 8.6 °F 63% 29.70 in 10.0 mi NE 8.1 mph - N/A   Overcast
11:35 PM 19.4 °F 7.9 °F 6.8 °F 58% 29.70 in 10.0 mi ENE 10.4 mph - N/A   Overcast
11:55 PM 19.4 °F 11.5 °F 6.8 °F 58% 29.71 in 10.0 mi NE 5.8 mph - N/A   Overcast